Вернуться в каталог

STARLINK-2031

АктивенСвязьVLEO
NORAD 47648·PAYLOAD·🇺🇸 United States

Запущен Feb 16, 2021 с Cape Canaveral Space Force Station

Loading…

Ближайшие Пролёты (ближайшие 24 часа)

TLE

СвежийSource: CelesTrak SupGP

Эпоха: Sep 14, 2026, 21:41 UTC

1 47648C 21012AE  26257.90395833  .00042637  00000+0  13714-2 0  2573
2 47648  53.1570 248.9728 0001360 102.6444  24.5666 15.31672578    18

Отслеживайте STARLINK-2031 в реальном времени с AllMySat

Download on the App Store